Weather History for Chignik, AK

Change the Weather History Date:

Thursday, February 13, 2014

  Actual Average Record
Temperature  
Mean Temperature 10 °F -  
Max Temperature 15 °F 34 °F 44 °F (2002)
Min Temperature 5 °F 27 °F 5 °F (2014)
Degree Days  
Heating Degree Days 55    
Moisture  
Dew Point 0 °F    
Average Humidity 68    
Maximum Humidity 85    
Minimum Humidity 56    
Precipitation  
Precipitation 0.00 in - - ()
Sea Level Pressure  
Sea Level Pressure 29.25 in    
Wind  
Wind Speed 16 mph (West)    
Max Wind Speed 24 mph    
Max Gust Speed 40 mph    
Visibility 8 miles    
Events      
Averages and records for this station are not official NWS values.
T = Trace of Precipitation, MM = Missing Value Source: NWS Daily Summary

Daily Weather History Graph

Daily Weather History Graph

Search for Another Location

Airport:

Trip Planner

Search our weather history database for the weather conditions in past years. The results will help you decide how hot, cold, wet, or windy it might be!

Date:

Astronomy

Feb. 13, 2014 Rise Set
Actual Time 9:03 AM AKST 6:32 PM AKST
Civil Twilight 8:24 AM AKST 7:12 PM AKST
Nautical Twilight 7:40 AM AKST 7:56 PM AKST
Astronomical Twilight 6:56 AM AKST 8:39 PM AKST
Moon 5:53 PM AKST (2/13) 8:04 AM AKST (2/13)
Length of Visible Light 10h 47m
Length of Day
9h 29m
Waxing Gibbous, 99% of the Moon is Illuminated
Feb 13
Waxing Gibbous
Feb 14
Full
Feb 22
Last Quarter
Feb 28
New
Mar 8
First Quarter

Hourly Weather History & Observations

Time (AKST) Temp. Windchill Dew Point Humidity Pressure Visibility Wind Dir Wind Speed Gust Speed Precip Events Conditions
12:16 AM 15.8 °F 1.4 °F 3.2 °F 58% 29.36 in 10.0 mi West 13.8 mph 28.8 mph N/A   Mostly Cloudy
12:36 AM 15.8 °F 2.7 °F 6.8 °F 68% 29.35 in 10.0 mi WNW 11.5 mph 27.6 mph N/A   Overcast
12:56 AM 15.8 °F 2.1 °F 5.0 °F 62% 29.35 in 10.0 mi WNW 12.7 mph 21.9 mph N/A   Overcast
1:16 AM 15.8 °F 0.3 °F 3.2 °F 58% 29.35 in 10.0 mi West 16.1 mph 40.3 mph N/A   Overcast
1:36 AM 14.0 °F -1.4 °F 3.2 °F 62% 29.35 in 10.0 mi WNW 15.0 mph 27.6 mph N/A   Overcast
1:56 AM 14.0 °F -2.0 °F 3.2 °F 62% 29.34 in 10.0 mi West 16.1 mph 28.8 mph N/A   Overcast
2:16 AM 14.0 °F -4.3 °F 6.8 °F 73% 29.33 in 5.0 mi WSW 21.9 mph 36.8 mph N/A   Overcast
2:36 AM 14.0 °F -3.0 °F 5.0 °F 67% 29.33 in 5.0 mi West 18.4 mph 40.3 mph N/A   Overcast
2:56 AM 14.0 °F -0.8 °F 6.8 °F 73% 29.32 in 7.0 mi West 13.8 mph 28.8 mph N/A   Overcast
3:16 AM 12.2 °F -3.7 °F 6.8 °F 79% 29.32 in 10.0 mi West 15.0 mph 33.4 mph N/A   Mostly Cloudy
3:36 AM 12.2 °F -6.3 °F 5.0 °F 73% 29.31 in 10.0 mi West 20.7 mph 34.5 mph N/A   Mostly Cloudy
3:56 AM 12.2 °F -4.8 °F 5.0 °F 73% 29.30 in 10.0 mi West 17.3 mph 32.2 mph N/A   Overcast
4:16 AM 12.2 °F -5.3 °F 3.2 °F 67% 29.29 in 7.0 mi WSW 18.4 mph 33.4 mph N/A   Mostly Cloudy
4:36 AM 12.2 °F -4.3 °F 3.2 °F 67% 29.28 in 9.0 mi NW 16.1 mph 28.8 mph N/A   Overcast
4:56 AM 12.2 °F -5.3 °F 1.4 °F 62% 29.28 in 10.0 mi West 18.4 mph 29.9 mph N/A   Overcast
5:16 AM 10.4 °F -6.6 °F -0.4 °F 62% 29.27 in 10.0 mi WNW 16.1 mph 27.6 mph N/A   Overcast
5:36 AM 10.4 °F -8.6 °F -2.2 °F 57% 29.27 in 10.0 mi WNW 20.7 mph 33.4 mph N/A   Scattered Clouds
5:56 AM 10.4 °F -7.7 °F -0.4 °F 62% 29.27 in 10.0 mi West 18.4 mph 35.7 mph N/A   Mostly Cloudy
6:16 AM 10.4 °F -6.6 °F -0.4 °F 62% 29.27 in 7.0 mi West 16.1 mph 29.9 mph N/A   Overcast
6:36 AM 10.4 °F -7.2 °F -0.4 °F 62% 29.28 in 5.0 mi West 17.3 mph 35.7 mph N/A   Overcast
6:56 AM 8.6 °F -8.9 °F -0.4 °F 67% 29.26 in 9.0 mi WNW 16.1 mph 32.2 mph N/A   Mostly Cloudy
7:16 AM 8.6 °F -10.0 °F -0.4 °F 67% 29.25 in 10.0 mi West 18.4 mph 26.5 mph N/A   Overcast
7:36 AM 8.6 °F -10.5 °F -0.4 °F 67% 29.25 in 6.0 mi West 19.6 mph 29.9 mph N/A   Overcast
7:56 AM 8.6 °F -7.7 °F 1.4 °F 73% 29.25 in 3.0 mi West 13.8 mph 25.3 mph N/A   Mostly Cloudy
8:16 AM 8.6 °F -10.5 °F 1.4 °F 73% 29.25 in 5.0 mi West 19.6 mph 26.5 mph N/A   Mostly Cloudy
8:36 AM 8.6 °F -7.0 °F -2.2 °F 62% 29.25 in 10.0 mi West 12.7 mph 25.3 mph N/A   Overcast
8:56 AM 8.6 °F -6.3 °F -4.0 °F 57% 29.25 in 10.0 mi West 11.5 mph 35.7 mph N/A   Overcast
9:16 AM 6.8 °F -10.7 °F -0.4 °F 72% 29.25 in 1.8 mi West 15.0 mph 26.5 mph N/A   Overcast
9:36 AM 6.8 °F -10.0 °F 1.4 °F 79% 29.25 in 1.5 mi WNW 13.8 mph 23.0 mph N/A   Mostly Cloudy
9:56 AM 6.8 °F -14.7 °F 1.4 °F 79% 29.25 in 2.5 mi WNW 24.2 mph 34.5 mph N/A   Mostly Cloudy
10:36 AM 5.0 °F -11.6 °F -4.0 °F 66% 29.25 in 10.0 mi West 12.7 mph 27.6 mph N/A   Overcast
10:56 AM 6.8 °F -13.8 °F -5.8 °F 56% 29.25 in 9.0 mi NW 21.9 mph 27.6 mph N/A   Overcast
11:16 AM 5.0 °F -13.6 °F 1.4 °F 85% 29.26 in 1.5 mi WNW 16.1 mph 26.5 mph N/A   Overcast
11:36 AM 5.0 °F -9.1 °F -4.0 °F 66% 29.27 in 3.0 mi West 9.2 mph 18.4 mph N/A   Overcast
11:56 AM 5.0 °F -13.0 °F -2.2 °F 72% 29.26 in 7.0 mi West 15.0 mph 24.2 mph N/A   Overcast
12:16 PM 5.0 °F -13.6 °F 1.4 °F 85% 29.26 in 2.5 mi West 16.1 mph 24.2 mph N/A   Overcast
12:36 PM 5.0 °F -13.0 °F -0.4 °F 78% 29.25 in 2.0 mi West 15.0 mph 24.2 mph N/A   Overcast
12:56 PM 5.0 °F -14.7 °F -0.4 °F 78% 29.24 in 2.0 mi West 18.4 mph 25.3 mph N/A   Overcast
1:16 PM 5.0 °F -13.0 °F -2.2 °F 72% 29.24 in 2.0 mi WNW 15.0 mph 26.5 mph N/A   Overcast
1:36 PM 5.0 °F -15.2 °F -0.4 °F 78% 29.24 in 4.0 mi NW 19.6 mph 24.2 mph N/A   Overcast
1:56 PM 6.8 °F -11.3 °F -5.8 °F 56% 29.24 in 10.0 mi WNW 16.1 mph 25.3 mph N/A   Overcast
2:16 PM 6.8 °F -11.8 °F -4.0 °F 61% 29.23 in 10.0 mi NW 17.3 mph 38.0 mph N/A   Overcast
2:36 PM 6.8 °F -10.7 °F -2.2 °F 67% 29.23 in 8.0 mi WNW 15.0 mph 23.0 mph N/A   Overcast
2:56 PM 6.8 °F -14.3 °F -2.2 °F 67% 29.22 in 10.0 mi WSW 23.0 mph 33.4 mph N/A   Overcast
3:16 PM 6.8 °F -13.4 °F -2.2 °F 67% 29.23 in 10.0 mi West 20.7 mph 32.2 mph N/A   Overcast
3:36 PM 6.8 °F -13.8 °F 1.4 °F 79% 29.22 in 7.0 mi WSW 21.9 mph 32.2 mph N/A   Overcast
3:56 PM 6.8 °F -12.9 °F -2.2 °F 67% 29.21 in 10.0 mi West 19.6 mph 29.9 mph N/A   Overcast
4:16 PM 8.6 °F -7.7 °F -0.4 °F 67% 29.21 in 10.0 mi West 13.8 mph 29.9 mph N/A   Overcast
4:36 PM 8.6 °F -8.9 °F -0.4 °F 67% 29.21 in 10.0 mi West 16.1 mph 31.1 mph N/A   Overcast
4:56 PM 8.6 °F -10.0 °F -2.2 °F 62% 29.21 in 10.0 mi WSW 18.4 mph 27.6 mph N/A   Overcast
5:16 PM 8.6 °F -8.3 °F 1.4 °F 73% 29.22 in 4.0 mi West 15.0 mph 27.6 mph N/A   Overcast
5:36 PM 8.6 °F -7.7 °F -0.4 °F 67% 29.21 in 9.0 mi NW 13.8 mph 25.3 mph N/A   Overcast
5:56 PM 8.6 °F -7.7 °F -4.0 °F 57% 29.20 in 10.0 mi WNW 13.8 mph 24.2 mph N/A   Overcast
6:16 PM 8.6 °F -6.3 °F -2.2 °F 62% 29.19 in 9.0 mi West 11.5 mph 31.1 mph N/A   Overcast
6:36 PM 8.6 °F -7.7 °F -0.4 °F 67% 29.19 in 3.0 mi WNW 13.8 mph 28.8 mph N/A   Overcast
6:56 PM 8.6 °F -7.0 °F 1.4 °F 73% 29.19 in 5.0 mi West 12.7 mph 28.8 mph N/A   Overcast
7:16 PM 8.6 °F -8.3 °F -0.4 °F 67% 29.19 in 10.0 mi WNW 15.0 mph 23.0 mph N/A   Overcast
7:36 PM 8.6 °F -10.5 °F 1.4 °F 73% 29.20 in 8.0 mi NW 19.6 mph 25.3 mph N/A   Overcast
7:56 PM 6.8 °F -11.3 °F -2.2 °F 67% 29.21 in 10.0 mi WNW 16.1 mph 26.5 mph N/A   Overcast
8:16 PM 6.8 °F -9.3 °F -5.8 °F 56% 29.21 in 10.0 mi West 12.7 mph 24.2 mph N/A   Overcast
8:36 PM 6.8 °F -13.4 °F -2.2 °F 67% 29.20 in 10.0 mi West 20.7 mph 28.8 mph N/A   Overcast
8:56 PM 6.8 °F -10.7 °F -2.2 °F 67% 29.21 in 10.0 mi West 15.0 mph 32.2 mph N/A   Overcast
9:16 PM 6.8 °F -11.8 °F -0.4 °F 72% 29.21 in 6.0 mi West 17.3 mph 29.9 mph N/A   Overcast
9:36 PM 6.8 °F -14.3 °F -0.4 °F 72% 29.21 in 7.0 mi WSW 23.0 mph 29.9 mph N/A   Overcast
9:56 PM 6.8 °F -11.8 °F -0.4 °F 72% 29.22 in 3.0 mi WNW 17.3 mph 29.9 mph N/A   Overcast
10:16 PM 6.8 °F -11.3 °F -0.4 °F 72% 29.22 in 3.0 mi WNW 16.1 mph 21.9 mph N/A   Mostly Cloudy
10:36 PM 6.8 °F -12.4 °F -0.4 °F 72% 29.22 in 8.0 mi WNW 18.4 mph 25.3 mph N/A   Mostly Cloudy
10:56 PM 6.8 °F -9.3 °F -2.2 °F 67% 29.22 in 10.0 mi West 12.7 mph 20.7 mph N/A   Overcast
11:16 PM 6.8 °F -10.7 °F -0.4 °F 72% 29.22 in 10.0 mi WNW 15.0 mph 21.9 mph N/A   Overcast
11:36 PM - - - N/A% 29.23 in 10.0 mi West 8.1 mph 21.9 mph N/A   Overcast
11:56 PM 6.8 °F -10.0 °F -0.4 °F 72% 29.23 in 9.0 mi West 13.8 mph 24.2 mph N/A   Overcast